Tracking 31027 objects as of 19-Jul-2025
HD Live streaming from Space Station
objects crossing your sky now

AMAZONAS 2

Track AMAZONAS 2 now!
AMAZONAS 2 is classified as:


NORAD ID: 35942
Int'l Code: 2009-054A
Perigee: 35,779.8 km
Apogee: 35,806.8 km
Inclination: 0.9 °
Period: 1,436.1 minutes
Semi major axis: 42164 km
RCS: 8.2771 m2 (large)
Launch date: September 30, 2009
Source: Spain (SPN)
Launch site: FRENCH GUIANA (FRGUI)

Amazonas 2 was built by Astrium based on its Eurostar E3000 satellite bus, for on-orbit delivery in 2009. Amazonas 2 will be operated from at 61° West, providing relay services with 54 Ku band and 10 C band transponders.
Your satellite tracking list
IRIDIUM 135
Track 1 satellite(s)




NASA's NSSDC Master Catalog

Two Line Element Set (TLE):
1 35942U 09054A   25199.54469815 -.00000277  00000-0  00000-0 0  9996
2 35942   0.9479  87.9244 0003199  34.9354 309.0043  1.00273373 57836
Source of the keplerian elements: AFSPC